TimeMDT,TemperatureF,Dew PointF,Humidity,Sea Level PressureIn,VisibilityMPH,Wind Direction,Wind SpeedMPH,Gust SpeedMPH,PrecipitationIn,Events,Conditions,WindDirDegrees,DateUTC
12:53 AM,26.1,21.0,81,30.18,10.0,Calm,Calm,-,N/A,,Overcast,0,2012-10-27 06:53:00
1:53 AM,24.1,19.9,84,30.15,10.0,SE,4.6,-,N/A,,Partly Cloudy,130,2012-10-27 07:53:00
2:53 AM,25.0,19.9,81,30.15,10.0,SSE,4.6,-,N/A,,Mostly Cloudy,160,2012-10-27 08:53:00
3:53 AM,24.1,21.0,88,30.14,10.0,South,3.5,-,N/A,,Overcast,180,2012-10-27 09:53:00
4:53 AM,26.1,21.0,81,30.12,10.0,SSE,5.8,-,N/A,,Overcast,150,2012-10-27 10:53:00
5:53 AM,23.0,19.9,88,30.14,10.0,Calm,Calm,-,N/A,,Partly Cloudy,0,2012-10-27 11:53:00
6:53 AM,21.9,19.0,89,30.17,10.0,SE,3.5,-,N/A,,Mostly Cloudy,130,2012-10-27 12:53:00
7:53 AM,23.0,19.9,88,30.17,10.0,Calm,Calm,-,N/A,,Mostly Cloudy,0,2012-10-27 13:53:00
9:53 AM,28.9,23.0,78,30.17,10.0,Calm,Calm,-,N/A,,Clear,0,2012-10-27 15:53:00
10:53 AM,33.1,24.1,70,30.16,10.0,Calm,Calm,-,N/A,,Overcast,0,2012-10-27 16:53:00
11:53 AM,37.0,23.0,57,30.16,10.0,Calm,Calm,-,N/A,,Partly Cloudy,0,2012-10-27 17:53:00
12:53 PM,42.1,19.9,41,30.12,10.0,SW,3.5,-,N/A,,Clear,220,2012-10-27 18:53:00
1:53 PM,45.0,19.0,36,30.08,10.0,ESE,3.5,-,N/A,,Clear,110,2012-10-27 19:53:00
2:53 PM,48.0,18.0,30,30.06,10.0,Calm,Calm,-,N/A,,Clear,0,2012-10-27 20:53:00
3:53 PM,48.9,17.1,28,30.05,10.0,ENE,3.5,-,N/A,,Clear,70,2012-10-27 21:53:00
4:53 PM,48.9,18.0,29,30.05,10.0,ESE,4.6,-,N/A,,Partly Cloudy,110,2012-10-27 22:53:00
5:53 PM,44.1,19.9,38,30.08,10.0,ESE,4.6,-,N/A,,Clear,110,2012-10-27 23:53:00
6:53 PM,41.0,19.9,43,30.11,10.0,ESE,8.1,-,N/A,,Clear,110,2012-10-28 00:53:00
7:53 PM,41.0,21.9,47,30.12,10.0,SE,8.1,-,N/A,,Clear,140,2012-10-28 01:53:00
8:53 PM,37.0,24.1,59,30.12,10.0,Calm,Calm,-,N/A,,Clear,0,2012-10-28 02:53:00
10:53 PM,36.0,24.1,62,30.12,10.0,Calm,Calm,-,N/A,,Overcast,0,2012-10-28 04:53:00
11:53 PM,34.0,23.0,64,30.09,10.0,Calm,Calm,-,N/A,,Clear,0,2012-10-28 05:53:00